[TLELIST] Archives

 

[list_settings.list_name] Current TLEs

July 20th 2009 PST

HST 1 20580U 90037B 09197.50597879 +.00000263 +00000-0 +73702-5 0 04215 2 20580 028.4705 270.9422 0003460 232.7761 127.2672 15.00815817854268 ISS (ZARYA) 1 25544U 98067A 09199.98285707 -.00022872 +00000-0 -15385-3 0 02401 2 25544 051.6372 143.6106 0006123 248.3935 152.3559 15.73879154610965 CXO 1 25867U 99040B 09200.87500000 -.00000140 +00000-0 +10000-3 0 03489 2 25867 065.5891 067.9571 7579657 275.7735 359.0724 00.37793972005137 ____________________________________________________________________ These 2-Line ...Continue Reading

[list_settings.list_name] Current TLEs

July 19th 2009 PST

HST 1 20580U 90037B 09197.50597879 +.00000263 +00000-0 +73702-5 0 04215 2 20580 028.4705 270.9422 0003460 232.7761 127.2672 15.00815817854268 ISS (ZARYA) 1 25544U 98067A 09198.85154880 +.00009252 +00000-0 +66696-4 0 02321 2 25544 051.6353 149.4155 0006868 246.6521 219.4066 15.74391146610789 CXO 1 25867U 99040B 09198.20833333 -.00000029 +00000-0 +10000-3 0 03464 2 25867 065.5751 068.0563 7577662 275.8190 355.9538 00.37803041005121 ____________________________________________________________________ These 2-Line ...Continue Reading

[list_settings.list_name] Current TLEs

July 18th 2009 PST

HST 1 20580U 90037B 09197.50597879 +.00000263 +00000-0 +73702-5 0 04215 2 20580 028.4705 270.9422 0003460 232.7761 127.2672 15.00815817854268 ISS (ZARYA) 1 25544U 98067A 09197.89571571 +.00009797 +00000-0 +70326-4 0 02277 2 25544 051.6383 154.3244 0007102 232.4894 212.4015 15.74402858610638 CXO 1 25867U 99040B 09198.20833333 -.00000029 +00000-0 +10000-3 0 03464 2 25867 065.5751 068.0563 7577662 275.8190 355.9538 00.37803041005121 ____________________________________________________________________ These 2-Line ...Continue Reading

[list_settings.list_name] Current TLEs

July 17th 2009 PST

HST 1 20580U 90037B 09194.51349712 +.00000309 +00000-0 +10848-4 0 04205 2 20580 028.4709 290.4849 0003571 201.0834 158.9591 15.00815143853818 ISS (ZARYA) 1 25544U 98067A 09197.45336425 .00009883 00000-0 70929-4 0 2271 2 25544 051.6385 156.5983 0007078 231.3404 224.6831 15.74393905610566 CXO 1 25867U 99040B 09195.67197392 .00000000 00000-0 10000-3 0 3479 2 25867 065.5594 068.1364 7573476 275.7818 010.7765 00.37815994 5118 ____________________________________________________________________ These 2-Line ...Continue Reading

[list_settings.list_name] Current TLEs

July 16th 2009 PST

HST 1 20580U 90037B 09194.51349712 +.00000309 +00000-0 +10848-4 0 04205 2 20580 028.4709 290.4849 0003571 201.0834 158.9591 15.00815143853818 ISS (ZARYA) 1 25544U 98067A 09197.13813881 .00010048 00000-0 72057-4 0 2248 2 25544 051.6378 158.2168 0007161 228.9410 239.2455 15.74388051610519 CXO 1 25867U 99040B 09195.58333333 +.00000074 +00000-0 +10000-3 0 03455 2 25867 065.5569 068.1929 7576543 275.8081 358.6226 00.37808519005119 ____________________________________________________________________ These 2-Line ...Continue Reading

[list_settings.list_name] Current TLEs

July 15th 2009 PST

HST 1 20580U 90037B 09194.51349712 +.00000309 +00000-0 +10848-4 0 04205 2 20580 028.4709 290.4849 0003571 201.0834 158.9591 15.00815143853818 ISS (ZARYA) 1 25544U 98067A 09194.90583292 +.00014937 +00000-0 +10511-3 0 02113 2 25544 051.6393 169.6860 0006942 221.9667 185.6363 15.74352531610161 CXO 1 25867U 99040B 09195.58333333 +.00000074 +00000-0 +10000-3 0 03455 2 25867 065.5569 068.1929 7576543 275.8081 358.6226 00.37808519005119 ____________________________________________________________________ These 2-Line ...Continue Reading

[list_settings.list_name] Current TLEs

July 14th 2009 PST

HST 1 20580U 90037B 09190.78951936 +.00000286 +00000-0 +91467-5 0 04196 2 20580 028.4709 314.7820 0003571 161.5079 198.5662 15.00814182853257 ISS (ZARYA) 1 25544U 98067A 09193.89889522 -.00200642 +00000-0 -13028-2 0 02066 2 25544 051.6391 174.8720 0007873 265.7451 191.9979 15.75714260610001 CXO 1 25867U 99040B 09192.95833333 +.00000057 +00000-0 +10000-3 0 03448 2 25867 065.5430 068.2971 7572956 275.7932 001.3349 00.37806341005100 ____________________________________________________________________ These 2-Line ...Continue Reading

[list_settings.list_name] Current TLEs

July 13th 2009 PST

HST 1 20580U 90037B 09190.78951936 +.00000286 +00000-0 +91467-5 0 04196 2 20580 028.4709 314.7820 0003571 161.5079 198.5662 15.00814182853257 ISS (ZARYA) 1 25544U 98067A 09193.76554074 .00007389 00000-0 54335-4 0 2051 2 25544 051.6370 175.5450 0007282 216.5160 203.9979 15.74309800609989 CXO 1 25867U 99040B 09192.95833333 +.00000057 +00000-0 +10000-3 0 03448 2 25867 065.5430 068.2971 7572956 275.7932 001.3349 00.37806341005100 ____________________________________________________________________ These 2-Line ...Continue Reading

[list_settings.list_name] Current TLEs

July 12th 2009 PST

HST 1 20580U 90037B 09190.78951936 +.00000286 +00000-0 +91467-5 0 04196 2 20580 028.4709 314.7820 0003571 161.5079 198.5662 15.00814182853257 ISS (ZARYA) 1 25544U 98067A 09191.86087965 +.00007394 +00000-0 +54431-4 0 01939 2 25544 051.6376 185.3286 0007544 208.9838 209.6574 15.74279173609689 CXO 1 25867U 99040B 09192.95833333 +.00000057 +00000-0 +10000-3 0 03448 2 25867 065.5430 068.2971 7572956 275.7932 001.3349 00.37806341005100 ____________________________________________________________________ These 2-Line ...Continue Reading

[list_settings.list_name] Current TLEs

July 11th 2009 PST

HST 1 20580U 90037B 09189.79202399 +.00000280 +00000-0 +86852-5 0 04182 2 20580 028.4708 321.2916 0003574 150.8228 209.2522 15.00813861853107 ISS (ZARYA) 1 25544U 98067A 09191.49424947 .00007509 00000-0 55223-4 0 1919 2 25544 051.6372 187.2135 0007393 206.9621 292.4394 15.74273747609624 CXO 1 25867U 99040B 09190.29166667 -.00000045 +00000-0 +10000-3 0 03439 2 25867 065.5315 068.3732 7569041 275.7922 358.3549 00.37805061005091 ____________________________________________________________________ These 2-Line ...Continue Reading
  • This mailing list is a public mailing list - anyone may join or leave, at any time.
  • This mailing list is announce-only.

International Space Station (ISS) / Hubble Space Telescope (HST) / Chandra X-Ray Observatory Orbital Data via EMAIL

Privacy Policy:

Private list